AEHF-2 (USA 235)

Last updated on Fri Dec 19 2025 00:02:50 GMT+0000 (Coordinated Universal Time)

1 38254U 12019A 25352.40807916 -.00000116 00000+0 00000+0 0 9994 2 38254 6.2324 58.7893 0003848 206.8365 312.0729 1.00270560 5172
UTC large
Height (km)
Speed (km/s)
/
Latitude / Longitude
Inclination (degrees)
Orbital Period (minutes)
Azimuth
Elevation
Range (km)
Doppler Factor

Next 0 passes for location: London (51.5072 / 0.1276)

Sorry there are no passes over London.